Weather History for Mora, MN

Change the Weather History Date:

Friday, November 9, 2012

  Actual Average Record
Temperature  
Mean Temperature 36 °F -  
Max Temperature 41 °F 39 °F 69 °F (1999)
Min Temperature 30 °F 22 °F -2 °F (1991)
Degree Days  
Heating Degree Days 30    
Moisture  
Dew Point 32 °F    
Average Humidity 84    
Maximum Humidity 100    
Minimum Humidity 70    
Precipitation  
Precipitation 0.00 in - - ()
Sea Level Pressure  
Sea Level Pressure 30.06 in    
Wind  
Wind Speed 5 mph (ENE)    
Max Wind Speed 13 mph    
Max Gust Speed 22 mph    
Visibility 9 miles    
Events      
Averages and records for this station are not official NWS values.
T = Trace of Precipitation, MM = Missing Value Source: NWS Daily Summary

Daily Weather History Graph

Daily Weather History Graph

Search for Another Location

Airport:

Trip Planner

Search our weather history database for the weather conditions in past years. The results will help you decide how hot, cold, wet, or windy it might be!

Date:

Astronomy

Nov. 09, 2012 Rise Set
Actual Time 7:05 AM CST 4:47 PM CST
Civil Twilight 6:33 AM CST 5:19 PM CST
Nautical Twilight 5:57 AM CST 5:55 PM CST
Astronomical Twilight 5:22 AM CST 6:30 PM CST
Moon 1:50 AM CST (11/9) 2:13 PM CST (11/9)
Length of Visible Light 10h 46m
Length of Day
9h 42m
Waning Crescent, 23% of the Moon is Illuminated
Nov 9
Waning Crescent
Nov 13
New
Nov 20
First Quarter
Nov 28
Full
Dec 6
Last Quarter

Hourly Weather History & Observations

Time (CST) Temp. Windchill Dew Point Humidity Pressure Visibility Wind Dir Wind Speed Gust Speed Precip Events Conditions
12:01 AM 32.0 °F - 30.2 °F 93% 30.06 in 4.0 mi Calm Calm - N/A   Clear
12:21 AM 32.0 °F - 32.0 °F 100% 30.06 in 7.0 mi Calm Calm - N/A   Clear
12:41 AM 32.0 °F - 30.2 °F 93% 30.06 in 5.0 mi Calm Calm - N/A   Clear
1:01 AM 32.0 °F - 30.2 °F 93% 30.06 in 4.0 mi Calm Calm - N/A   Clear
1:21 AM 30.2 °F - 30.2 °F 100% 30.05 in 4.0 mi Calm Calm - N/A   Clear
1:41 AM 32.0 °F - 30.2 °F 93% 30.06 in 5.0 mi Calm Calm - N/A   Clear
2:01 AM 32.0 °F - 30.2 °F 93% 30.07 in 5.0 mi Calm Calm - N/A   Clear
2:21 AM 32.0 °F - 32.0 °F 100% 30.06 in 5.0 mi Calm Calm - N/A   Clear
2:41 AM 33.8 °F - 32.0 °F 93% 30.07 in 7.0 mi Calm Calm - N/A   Clear
3:01 AM 33.8 °F - 32.0 °F 93% 30.07 in 5.0 mi Calm Calm - N/A   Clear
3:21 AM 32.0 °F 28.7 °F 32.0 °F 100% 30.06 in 7.0 mi NNE 3.5 mph - N/A   Clear
3:41 AM 33.8 °F 30.8 °F 32.0 °F 93% 30.07 in 7.0 mi NNE 3.5 mph - N/A   Mostly Cloudy
4:01 AM 33.8 °F - 32.0 °F 93% 30.07 in 7.0 mi Calm Calm - N/A   Overcast
4:21 AM 33.8 °F 30.8 °F 33.8 °F 100% 30.07 in 10.0 mi NNE 3.5 mph - N/A   Overcast
4:41 AM 35.6 °F 32.8 °F 33.8 °F 93% 30.07 in 10.0 mi NNE 3.5 mph - N/A   Overcast
5:01 AM 35.6 °F 30.7 °F 33.8 °F 93% 30.07 in 10.0 mi NE 5.8 mph - N/A   Overcast
5:21 AM 35.6 °F 30.7 °F 33.8 °F 93% 30.07 in 10.0 mi NE 5.8 mph - N/A   Overcast
5:41 AM 35.6 °F 30.7 °F 35.6 °F 100% 30.08 in 10.0 mi ENE 5.8 mph - N/A   Overcast
6:01 AM 35.6 °F 30.7 °F 33.8 °F 93% 30.08 in 10.0 mi NE 5.8 mph - N/A   Overcast
6:21 AM 35.6 °F 29.9 °F 33.8 °F 93% 30.08 in 10.0 mi NE 6.9 mph - N/A   Overcast
6:41 AM 37.4 °F 33.8 °F 33.8 °F 87% 30.08 in 10.0 mi NNE 4.6 mph - N/A   Overcast
7:01 AM 37.4 °F 32.8 °F 33.8 °F 87% 30.08 in 10.0 mi NE 5.8 mph - N/A   Overcast
7:21 AM 37.4 °F 32.1 °F 33.8 °F 87% 30.09 in 10.0 mi NE 6.9 mph - N/A   Overcast
7:41 AM 37.4 °F 32.8 °F 33.8 °F 87% 30.09 in 10.0 mi NE 5.8 mph - N/A   Overcast
8:01 AM 37.4 °F 32.8 °F 33.8 °F 87% 30.10 in 10.0 mi NE 5.8 mph - N/A   Overcast
8:21 AM 37.4 °F 32.8 °F 33.8 °F 87% 30.10 in 10.0 mi NE 5.8 mph - N/A   Overcast
8:41 AM 37.4 °F 31.4 °F 33.8 °F 87% 30.10 in 10.0 mi NE 8.1 mph 16.1 mph N/A   Overcast
9:01 AM 37.4 °F 29.8 °F 33.8 °F 87% 30.11 in 10.0 mi ENE 11.5 mph - N/A   Overcast
9:21 AM 37.4 °F 31.4 °F 33.8 °F 87% 30.10 in 10.0 mi ENE 8.1 mph 18.4 mph N/A   Overcast
9:41 AM 37.4 °F 32.1 °F 32.0 °F 81% 30.10 in 10.0 mi East 6.9 mph - N/A   Overcast
10:01 AM 37.4 °F 31.4 °F 32.0 °F 81% 30.10 in 10.0 mi NE 8.1 mph - N/A   Overcast
10:21 AM 37.4 °F 32.1 °F 32.0 °F 81% 30.10 in 10.0 mi ENE 6.9 mph - N/A   Overcast
10:41 AM 37.4 °F 30.3 °F 32.0 °F 81% 30.10 in 10.0 mi ENE 10.4 mph - N/A   Overcast
11:01 AM 37.4 °F 30.8 °F 32.0 °F 81% 30.09 in 10.0 mi East 9.2 mph - N/A   Overcast
11:21 AM 37.4 °F 32.8 °F 32.0 °F 81% 30.09 in 10.0 mi ENE 5.8 mph - N/A   Overcast
11:41 AM 39.2 °F 32.5 °F 32.0 °F 75% 30.08 in 10.0 mi ENE 10.4 mph - N/A   Overcast
12:01 PM 39.2 °F 32.5 °F 32.0 °F 75% 30.07 in 10.0 mi ENE 10.4 mph 18.4 mph N/A   Overcast
12:21 PM 39.2 °F 32.0 °F 32.0 °F 75% 30.06 in 10.0 mi East 11.5 mph - N/A   Overcast
12:41 PM 39.2 °F 33.6 °F 32.0 °F 75% 30.06 in 10.0 mi ENE 8.1 mph - N/A   Overcast
1:01 PM 41.0 °F 37.1 °F 33.8 °F 76% 30.05 in 10.0 mi ENE 5.8 mph - N/A   Overcast
1:21 PM 41.0 °F 34.7 °F 33.8 °F 76% 30.05 in 10.0 mi East 10.4 mph 18.4 mph N/A   Overcast
1:41 PM 41.0 °F 35.2 °F 33.8 °F 76% 30.04 in 10.0 mi East 9.2 mph 18.4 mph N/A   Overcast
2:01 PM 41.0 °F 35.2 °F 33.8 °F 76% 30.05 in 10.0 mi ENE 9.2 mph - N/A   Overcast
2:21 PM 41.0 °F 33.9 °F 33.8 °F 76% 30.04 in 10.0 mi ENE 12.7 mph 18.4 mph N/A   Overcast
2:41 PM 41.0 °F 35.2 °F 33.8 °F 76% 30.04 in 10.0 mi ENE 9.2 mph 19.6 mph N/A   Overcast
3:01 PM 41.0 °F 34.3 °F 33.8 °F 76% 30.03 in 10.0 mi ENE 11.5 mph - N/A   Overcast
3:21 PM 41.0 °F 36.4 °F 32.0 °F 70% 30.03 in 10.0 mi ENE 6.9 mph - N/A   Overcast
3:41 PM 41.0 °F 35.2 °F 32.0 °F 70% 30.03 in 10.0 mi East 9.2 mph 16.1 mph N/A   Overcast
4:01 PM 39.2 °F 33.6 °F 32.0 °F 75% 30.03 in 10.0 mi ENE 8.1 mph 16.1 mph N/A   Overcast
4:21 PM 39.2 °F 32.0 °F 32.0 °F 75% 30.03 in 10.0 mi ENE 11.5 mph 19.6 mph N/A   Overcast
4:41 PM 39.2 °F 32.0 °F 32.0 °F 75% 30.04 in 10.0 mi ENE 11.5 mph 17.3 mph N/A   Overcast
5:01 PM 39.2 °F 31.6 °F 32.0 °F 75% 30.03 in 10.0 mi East 12.7 mph 18.4 mph N/A   Overcast
5:21 PM 37.4 °F 30.3 °F 32.0 °F 81% 30.02 in 10.0 mi ENE 10.4 mph 17.3 mph N/A   Overcast
5:41 PM 37.4 °F 32.1 °F 32.0 °F 81% 30.02 in 10.0 mi ENE 6.9 mph 18.4 mph N/A   Overcast
6:01 PM 37.4 °F 30.8 °F 32.0 °F 81% 30.02 in 10.0 mi ENE 9.2 mph - N/A   Overcast
6:21 PM 37.4 °F 29.8 °F 32.0 °F 81% 30.03 in 10.0 mi East 11.5 mph 17.3 mph N/A   Overcast
6:41 PM 37.4 °F 31.4 °F 32.0 °F 81% 30.03 in 10.0 mi ENE 8.1 mph - N/A   Overcast
7:01 PM 37.4 °F 29.3 °F 32.0 °F 81% 30.04 in 10.0 mi ENE 12.7 mph 20.7 mph N/A   Overcast
7:21 PM 37.4 °F 29.8 °F 32.0 °F 81% 30.04 in 10.0 mi ENE 11.5 mph 21.9 mph N/A   Overcast
7:41 PM 37.4 °F 30.3 °F 32.0 °F 81% 30.05 in 10.0 mi East 10.4 mph 17.3 mph N/A   Overcast
8:01 PM 37.4 °F 30.8 °F 32.0 °F 81% 30.04 in 10.0 mi East 9.2 mph 19.6 mph N/A   Overcast
8:21 PM 37.4 °F 30.3 °F 32.0 °F 81% 30.04 in 10.0 mi East 10.4 mph 17.3 mph N/A   Overcast
8:41 PM 37.4 °F 29.8 °F 32.0 °F 81% 30.05 in 10.0 mi ENE 11.5 mph 17.3 mph N/A   Overcast
9:01 PM 37.4 °F 30.3 °F 32.0 °F 81% 30.05 in 10.0 mi East 10.4 mph 18.4 mph N/A   Overcast
9:21 PM 37.4 °F 29.3 °F 32.0 °F 81% 30.05 in 10.0 mi East 12.7 mph 19.6 mph N/A   Overcast
9:41 PM 37.4 °F 29.3 °F 32.0 °F 81% 30.04 in 10.0 mi East 12.7 mph 19.6 mph N/A   Overcast
10:01 PM 37.4 °F 29.8 °F 32.0 °F 81% 30.03 in 10.0 mi East 11.5 mph 17.3 mph N/A   Overcast
10:21 PM 37.4 °F 29.3 °F 32.0 °F 81% 30.03 in 10.0 mi East 12.7 mph 18.4 mph N/A   Overcast
10:41 PM 37.4 °F 29.8 °F 32.0 °F 81% 30.02 in 10.0 mi East 11.5 mph 19.6 mph N/A   Overcast
11:01 PM 37.4 °F 31.4 °F 32.0 °F 81% 30.02 in 10.0 mi East 8.1 mph 20.7 mph N/A   Overcast
11:21 PM 37.4 °F 31.4 °F 32.0 °F 81% 30.02 in 10.0 mi East 8.1 mph - N/A   Overcast
11:41 PM 37.4 °F 29.8 °F 32.0 °F 81% 29.99 in 10.0 mi East 11.5 mph 18.4 mph N/A   Overcast